Weather History for South Pass, WY

Change the Weather History Date:

Friday, August 30, 2013

  Actual Average (KLND) Record (KLND)
Temperature  
Mean Temperature 68 °F 66 °F  
Max Temperature 77 °F 81 °F 95 °F (1954)
Min Temperature 60 °F 51 °F 30 °F (1910)
Degree Days  
Heating Degree Days 0 2  
Month to date heating degree days 21  
Since 1 June heating degree days 163  
Since 1 July heating degree days 37  
Cooling Degree Days 4 3  
Month to date cooling degree days 163  
Year to date cooling degree days 440  
Since 1 June cooling degree days 435  
Growing Degree Days 18 (Base 50)    
Moisture  
Dew Point 36 °F    
Average Humidity 32    
Maximum Humidity 45    
Minimum Humidity 19    
Precipitation  
Precipitation 0.00 in 0.02 in 0.60 in (2003)
Month to date precipitation 0.59  
Year to date precipitation 8.86  
Snow  
Snow 0.00 in 0.00 in - ()
Month to date snowfall 0.0  
Since 1 June snowfall 0.1  
Since 1 July snowfall 0.0  
Snow Depth -    
Sea Level Pressure  
Sea Level Pressure 30.38 in    
Wind  
Wind Speed 7 mph (West)    
Max Wind Speed 25 mph    
Max Gust Speed 30 mph    
Visibility 10 miles    
Events      
T = Trace of Precipitation, MM = Missing Value Source: NWS Daily Summary

Daily Weather History Graph

Daily Weather History Graph

Search for Another Location

Airport:

Trip Planner

Search our weather history database for the weather conditions in past years. The results will help you decide how hot, cold, wet, or windy it might be!

Date:

Astronomy

Aug. 30, 2013 Rise Set
Actual Time 6:38 AM MDT 7:52 PM MDT
Civil Twilight 6:09 AM MDT 8:21 PM MDT
Nautical Twilight 5:34 AM MDT 8:55 PM MDT
Astronomical Twilight 4:57 AM MDT 9:32 PM MDT
Moon 1:15 AM MDT (8/30) 4:13 PM MDT (8/30)
Length of Visible Light 14h 11m
Length of Day
13h 13m
Waning Crescent, 28% of the Moon is Illuminated
Aug 30
Waning Crescent
Sep 5
New
Sep 12
First Quarter
Sep 19
Full
Sep 26
Last Quarter

Hourly Weather History & Observations

Time (MDT) Temp. Dew Point Humidity Pressure Visibility Wind Dir Wind Speed Gust Speed Precip Events Conditions
12:15 AM 60.8 °F 39.2 °F 45% 30.41 in 10.0 mi North 8.1 mph - N/A   Clear
12:35 AM 60.8 °F 39.2 °F 45% 30.41 in 10.0 mi North 6.9 mph - N/A   Clear
12:55 AM 60.8 °F 39.2 °F 45% 30.41 in 10.0 mi NNW 4.6 mph - N/A   Clear
1:15 AM 60.8 °F 39.2 °F 45% 30.41 in 10.0 mi North 6.9 mph - N/A   Clear
1:35 AM 60.8 °F 39.2 °F 45% 30.42 in 10.0 mi North 6.9 mph - N/A   Clear
1:55 AM 60.8 °F 39.2 °F 45% 30.41 in 10.0 mi NNW 5.8 mph - N/A   Clear
2:15 AM 60.8 °F 39.2 °F 45% 30.41 in 10.0 mi NNW 5.8 mph - N/A   Clear
2:35 AM 60.8 °F 39.2 °F 45% 30.41 in 10.0 mi NNW 5.8 mph - N/A   Clear
2:55 AM 60.8 °F 39.2 °F 45% 30.41 in 10.0 mi NW 4.6 mph - N/A   Clear
3:15 AM 60.8 °F 39.2 °F 45% 30.41 in 10.0 mi NW 3.5 mph - N/A   Clear
3:35 AM 60.8 °F 39.2 °F 45% 30.40 in 10.0 mi NNW 4.6 mph - N/A   Clear
3:55 AM 60.8 °F 39.2 °F 45% 30.40 in 10.0 mi NW 3.5 mph - N/A   Clear
4:15 AM 60.8 °F 39.2 °F 45% 30.40 in 10.0 mi WNW 3.5 mph - N/A   Clear
4:35 AM 62.6 °F 39.2 °F 42% 30.40 in 10.0 mi Calm Calm - N/A   Clear
4:55 AM 62.6 °F 39.2 °F 42% 30.40 in 10.0 mi Calm Calm - N/A   Clear
5:15 AM 64.4 °F 39.2 °F 40% 30.40 in 10.0 mi Calm Calm - N/A   Clear
5:35 AM 62.6 °F 39.2 °F 42% 30.40 in 10.0 mi Calm Calm - N/A   Clear
5:55 AM 62.6 °F 39.2 °F 42% 30.40 in 10.0 mi WSW 3.5 mph - N/A   Clear
6:15 AM 62.6 °F 39.2 °F 42% 30.40 in 10.0 mi WSW 4.6 mph - N/A   Clear
6:35 AM 62.6 °F 41.0 °F 45% 30.40 in 10.0 mi WSW 5.8 mph - N/A   Clear
6:55 AM 60.8 °F 39.2 °F 45% 30.41 in 10.0 mi WSW 5.8 mph - N/A   Clear
8:15 AM 62.6 °F 41.0 °F 45% 30.42 in 10.0 mi SSW 4.6 mph - N/A   Clear
8:35 AM 64.4 °F 41.0 °F 42% 30.42 in 10.0 mi SSW 5.8 mph - N/A   Clear
8:55 AM 66.2 °F 37.4 °F 35% 30.41 in 10.0 mi SSW 5.8 mph - N/A   Clear
9:15 AM 68.0 °F 37.4 °F 33% 30.42 in 10.0 mi SW 6.9 mph - N/A   Clear
9:35 AM 69.8 °F 35.6 °F 28% 30.42 in 10.0 mi SSW 9.2 mph - N/A   Clear
9:55 AM 69.8 °F 35.6 °F 28% 30.41 in 10.0 mi WSW 10.4 mph - N/A   Clear
10:15 AM 71.6 °F 33.8 °F 25% 30.42 in 10.0 mi WSW 9.2 mph - N/A   Clear
10:35 AM 71.6 °F 33.8 °F 25% 30.42 in 10.0 mi West 8.1 mph - N/A   Clear
10:55 AM 73.4 °F 33.8 °F 23% 30.41 in 10.0 mi WSW 9.2 mph - N/A   Clear
11:15 AM 73.4 °F 35.6 °F 25% 30.42 in 10.0 mi WSW 13.8 mph - N/A   Clear
11:35 AM 73.4 °F 35.6 °F 25% 30.42 in 10.0 mi SW 11.5 mph 19.6 mph N/A   Clear
11:55 AM 73.4 °F 35.6 °F 25% 30.42 in 10.0 mi SW 10.4 mph - N/A   Clear
12:15 PM 73.4 °F 35.6 °F 25% 30.41 in 10.0 mi SSW 10.4 mph 18.4 mph N/A   Clear
12:35 PM 75.2 °F 33.8 °F 22% 30.41 in 10.0 mi SW 10.4 mph - N/A   Clear
12:55 PM 75.2 °F 32.0 °F 21% 30.40 in 10.0 mi WSW 11.5 mph - N/A   Clear
1:15 PM 77.0 °F 32.0 °F 19% 30.40 in 10.0 mi WSW 10.4 mph - N/A   Clear
1:35 PM 77.0 °F 32.0 °F 19% 30.40 in 10.0 mi SW 10.4 mph 17.3 mph N/A   Scattered Clouds
1:55 PM 77.0 °F 32.0 °F 19% 30.39 in 10.0 mi WSW 6.9 mph - N/A   Mostly Cloudy
2:15 PM 77.0 °F 32.0 °F 19% 30.38 in 10.0 mi WSW 12.7 mph 20.7 mph N/A   Scattered Clouds
2:35 PM 77.0 °F 32.0 °F 19% 30.38 in 10.0 mi SW 11.5 mph - N/A   Scattered Clouds
2:55 PM 77.0 °F 32.0 °F 19% 30.37 in 10.0 mi SW 6.9 mph 23.0 mph N/A   Scattered Clouds
3:15 PM 73.4 °F 35.6 °F 25% 30.37 in 10.0 mi West 13.8 mph 21.9 mph N/A   Mostly Cloudy
3:35 PM 71.6 °F 35.6 °F 27% 30.36 in 10.0 mi NW 25.3 mph 29.9 mph N/A   Mostly Cloudy
3:55 PM 69.8 °F 35.6 °F 28% 30.36 in 10.0 mi WNW 11.5 mph 27.6 mph N/A   Overcast
4:15 PM 71.6 °F 35.6 °F 27% 30.36 in 10.0 mi WNW 10.4 mph - N/A   Scattered Clouds
4:35 PM 73.4 °F 33.8 °F 23% 30.36 in 10.0 mi West 13.8 mph 18.4 mph N/A   Clear
4:55 PM 73.4 °F 32.0 °F 22% 30.36 in 10.0 mi West 13.8 mph 19.6 mph N/A   Clear
5:15 PM 73.4 °F 33.8 °F 23% 30.36 in 10.0 mi West 11.5 mph 20.7 mph N/A   Clear
5:35 PM 73.4 °F 33.8 °F 23% 30.36 in 10.0 mi West 13.8 mph 18.4 mph N/A   Scattered Clouds
5:55 PM 73.4 °F 33.8 °F 23% 30.34 in 10.0 mi WSW 10.4 mph - N/A   Scattered Clouds
6:15 PM 73.4 °F 33.8 °F 23% 30.34 in 10.0 mi West 10.4 mph - N/A   Scattered Clouds
6:35 PM 73.4 °F 33.8 °F 23% 30.34 in 10.0 mi WSW 8.1 mph - N/A   Clear
6:55 PM 73.4 °F 33.8 °F 23% 30.32 in 10.0 mi SW 6.9 mph - N/A   Clear
7:15 PM 71.6 °F 32.0 °F 23% 30.32 in 10.0 mi SW 8.1 mph - N/A   Clear
7:35 PM 69.8 °F 33.8 °F 27% 30.32 in 10.0 mi WSW 6.9 mph - N/A   Clear
7:55 PM 69.8 °F 33.8 °F 27% 30.32 in 10.0 mi WSW 8.1 mph - N/A   Clear
8:15 PM 68.0 °F 33.8 °F 28% 30.33 in 10.0 mi WSW 9.2 mph - N/A   Clear
8:35 PM 66.2 °F 33.8 °F 30% 30.33 in 10.0 mi WSW 8.1 mph - N/A   Clear
8:55 PM 66.2 °F 35.6 °F 32% 30.34 in 10.0 mi WSW 9.2 mph - N/A   Clear
9:15 PM 66.2 °F 35.6 °F 32% 30.34 in 10.0 mi West 8.1 mph - N/A   Clear
9:35 PM 66.2 °F 35.6 °F 32% 30.34 in 10.0 mi West 6.9 mph - N/A   Clear
9:55 PM 64.4 °F 35.6 °F 34% 30.34 in 10.0 mi WSW 6.9 mph - N/A   Clear
10:15 PM 66.2 °F 35.6 °F 32% 30.34 in 10.0 mi West 8.1 mph - N/A   Clear
10:35 PM 64.4 °F 35.6 °F 34% 30.34 in 10.0 mi WNW 8.1 mph - N/A   Clear
10:55 PM 66.2 °F 33.8 °F 30% 30.34 in 10.0 mi WNW 8.1 mph - N/A   Clear
11:15 PM 66.2 °F 33.8 °F 30% 30.34 in 10.0 mi WNW 5.8 mph - N/A   Clear
11:35 PM 66.2 °F 33.8 °F 30% 30.34 in 10.0 mi WNW 6.9 mph - N/A   Clear
11:55 PM 66.2 °F 33.8 °F 30% 30.34 in 10.0 mi WNW 5.8 mph - N/A   Clear